www.pogodaiklimat.ru

Погода и климат >> Архив погоды >> Япония >> Иродзаки


ПОГОДА в Иродзаки

  • Прогноз погоды в Иродзаки
  • Монитор погоды в Иродзаки

АРХИВ ПОГОДЫ в Иродзаки

Время (UTC), дата Ветер
(напр.,м/с)
 
Видим.   Явления Облачность Т
(С)
Тd
(С)
f
(%)
Тe
(С)
Тes
(С)
Комфортность P
(гПа)
Po
(гПа)
Тmin
(С)
Tmax
(С)
R
(мм)
R24
(мм)
S
(см)
01 10.06 В 7 20 км слаб. дождь н/о +19.4 +16.6 84 +21 +21 комфорт 1000.9 994.8
02 10.06 В 8 20 км в посл. час дождь н/о +20.1 +16.4 79 +22 +22 комфорт 1000.8 994.7
03 10.06 СВ 7 20 км {дождь} н/о +21.8 +16.1 70 +26 +26 душно 1000.4 994.3
04 10.06 СВ 7 20 км н/о +22.6 +16.9 70 +27 +27 душно 1000.3 994.2
05 10.06 В 8 20 км н/о +22.0 +16.1 69 +26 +26 душно 999.8 993.7
06 10.06 СВ 5 20 км {дождь} н/о +21.2 +15.7 71 +24 +24 комфорт 1000.3 994.2 1
07 10.06 СЗ 4 3700 м дождь н/о +17.5 +17.0 97 +17 +17 1002.0 995.8
08 10.06 СЗ 2 8000 м дождь н/о +17.5 +17.2 98 +18 +18 1002.0 995.8
09 10.06 СВ 2 20 км слаб. дождь н/о +17.5 +16.9 96 +18 +18 1002.3 996.1
10 10.06 СЗ 2 20 км в посл. час дождь н/о +17.0 +16.7 98 +17 +17 1002.7 996.5
11 10.06 СЗ 2 20 км н/о +17.1 +16.1 94 +18 +18 1002.9 996.7
12 10.06 СВ 2 20 км {дождь} н/о +17.5 +15.9 90 +18 +18 1002.9 996.7 +22.6 31
13 10.06 С 2 20 км н/о +17.8 +15.3 85 +18 +18 1003.2 997.0
14 10.06 СВ 2 20 км н/о +17.7 +15.2 85 +18 +18 1002.7 996.5
15 10.06 СВ 2 20 км н/о +17.6 +14.5 82 +18 +18 1002.5 996.3
16 10.06 СВ 2 20 км н/о +16.9 +14.9 88 +17 +17 1003.3 997.1
17 10.06 СВ 3 20 км н/о +17.2 +14.7 85 +17 +17 1003.8 997.6
18 10.06 В 3 20 км н/о +17.0 +14.3 84 +17 +17 1004.1 997.9
19 10.06 СВ 3 20 км н/о +16.5 +14.5 88 +16 +16 1004.6 998.4
20 10.06 С 2 20 км н/о +16.4 +14.1 86 +16 +16 1005.1 998.9
21 10.06 СВ 1 20 км н/о +18.3 +15.4 83 +20 +20 1005.5 999.3
22 10.06 СВ 2 20 км н/о +19.5 +15.0 75 +22 +22 комфорт 1005.9 999.7
23 10.06 В 7 20 км н/о +20.5 +14.2 67 +23 +23 комфорт 1006.0 999.8
00 11.06 В 8 20 км н/о +20.1 +14.9 72 +22 +22 комфорт 1006.0 999.8 +16.2
01 11.06 В 8 20 км н/о +21.0 +14.7 67 +24 +24 комфорт 1005.8 999.7
02 11.06 В 8 20 км н/о +20.4 +14.5 69 +22 +22 комфорт 1006.0 999.8
03 11.06 В 9 20 км н/о +21.0 +14.4 66 +24 +24 комфорт 1006.0 999.9
04 11.06 В 9 20 км н/о +21.0 +14.4 66 +24 +24 комфорт 1005.6 999.5
05 11.06 В 8 20 км н/о +20.9 +15.0 69 +24 +24 комфорт 1005.4 999.3
06 11.06 В 5 20 км н/о +20.2 +15.2 73 +23 +23 комфорт 1006.0 999.8
07 11.06 В 5 20 км слаб. дождь н/о +20.0 +15.0 73 +22 +22 комфорт 1005.8 999.6
08 11.06 В 5 20 км в посл. час дождь н/о +19.9 +15.1 74 +22 +22 комфорт 1005.7 999.5
09 11.06 СВ 2 20 км слаб. дождь н/о +19.4 +15.5 78 +22 +22 комфорт 1006.2 1000.0
10 11.06 СВ 3 10 км слаб. дождь н/о +17.6 +16.5 93 +18 +18 1006.5 1000.3
11 11.06 ЮВ 2 4200 м дождь н/о +18.3 +16.6 90 +19 +19 1007.2 1001.0
12 11.06 В 3 2300 м дождь н/о +17.6 +17.3 98 +18 +18 1007.2 1001.0 +21.6 13
13 11.06 СВ 2 6000 м слаб. дождь н/о +17.4 +17.1 98 +18 +18 1007.5 1001.3
14 11.06 В 4 3200 м дождь н/о +17.6 +17.5 99 +17 +17 1007.6 1001.4
15 11.06 СВ 4 17 км слаб. дождь н/о +16.9 +16.3 96 +16 +16 1007.2 1001.0
16 11.06 В 8 14 км слаб. дождь н/о +16.2 +15.6 96 +15 +15 1006.5 1000.2
17 11.06 В 7 20 км в посл. час дождь н/о +15.7 +14.8 94 +14 +14 1006.4 1000.1
18 11.06 СВ 6 20 км {дождь} н/о +15.9 +14.8 93 +15 +15 1006.9 1000.6 12
19 11.06 В 5 20 км н/о +16.0 +14.9 93 +15 +15 1006.9 1000.6
20 11.06 СВ 4 20 км н/о +16.4 +14.9 91 +16 +16 1007.3 1001.0
21 11.06 В 4 20 км н/о +16.5 +14.5 88 +16 +16 1007.6 1001.3
22 11.06 СВ 3 20 км н/о +17.3 +14.8 85 +17 +17 1007.8 1001.6
23 11.06 В 4 20 км н/о +18.0 +14.3 79 +18 +18 1008.1 1001.9
00 12.06 В 5 20 км н/о +18.6 +14.9 79 +19 +19 1008.3 1002.1 +15.6 12
01 12.06 В 6 20 км н/о +18.7 +14.2 75 +19 +19 1008.3 1002.1
02 12.06 В 7 20 км н/о +19.5 +14.5 73 +21 +21 комфорт 1008.1 1001.9
03 12.06 В 8 20 км н/о +20.2 +14.6 70 +22 +22 комфорт 1007.8 1001.6
04 12.06 В 8 20 км н/о +20.5 +13.5 64 +22 +22 комфорт 1007.6 1001.4
05 12.06 В 7 20 км н/о +20.9 +14.6 67 +24 +24 комфорт 1007.6 1001.4
06 12.06 В 6 20 км н/о +21.1 +15.2 69 +24 +24 комфорт 1007.5 1001.4
07 12.06 В 7 20 км н/о +20.6 +15.2 71 +23 +23 комфорт 1007.6 1001.4
08 12.06 В 6 20 км н/о +20.2 +14.8 71 +22 +22 комфорт 1007.8 1001.6
09 12.06 В 5 20 км н/о +19.8 +14.8 73 +22 +22 комфорт 1008.3 1002.1
10 12.06 СВ 2 20 км н/о +19.5 +14.5 73 +22 +22 комфорт 1009.3 1003.1
11 12.06 В 4 20 км н/о +19.3 +14.8 75 +21 +21 комфорт 1009.4 1003.2
12 12.06 СВ 2 20 км н/о +19.3 +15.2 77 +21 +21 комфорт 1010.1 1003.9 +21.3
13 12.06 В 3 20 км н/о +19.2 +15.5 79 +21 +21 комфорт 1010.7 1004.5
14 12.06 СВ 3 20 км н/о +19.2 +15.9 81 +21 +21 комфорт 1010.7 1004.5
15 12.06 СВ 2 20 км н/о +18.6 +15.7 83 +20 +20 1010.6 1004.4
16 12.06 СВ 3 20 км н/о +18.5 +16.3 87 +20 +20 1010.7 1004.5
17 12.06 СВ 2 20 км н/о +18.3 +16.1 87 +20 +20 1010.8 1004.6
18 12.06 СВ 2 20 км н/о +18.2 +15.7 85 +19 +19 1010.6 1004.4
19 12.06 СВ 2 20 км н/о +18.6 +15.5 82 +20 +20 1010.8 1004.6
20 12.06 СВ 3 20 км н/о +18.7 +15.8 83 +20 +20 1011.3 1005.1
21 12.06 СВ 2 20 км н/о +19.0 +16.2 84 +21 +21 комфорт 1011.8 1005.6
22 12.06 СВ 3 20 км н/о +19.5 +16.2 81 +22 +22 комфорт 1012.5 1006.3
23 12.06 В 6 20 км н/о +21.2 +16.6 75 +25 +25 комфорт 1012.8 1006.6
00 13.06 В 6 20 км н/о +21.7 +16.7 73 +26 +26 душно 1013.2 1007.0 +18.0
01 13.06 В 5 20 км н/о +22.1 +17.0 73 +27 +27 душно 1013.5 1007.3
02 13.06 В 5 20 км н/о +22.4 +17.6 74 +27 +27 душно 1013.6 1007.4
03 13.06 В 4 20 км н/о +23.0 +18.3 75 +29 +29 очень
душно
1013.1 1007.0
04 13.06 В 4 20 км н/о +23.3 +18.0 72 +29 +29 душно 1012.9 1006.8
05 13.06 ЮВ 3 20 км н/о 1006.7
07 13.06 ЮВ 2 20 км н/о +24.1 +18.3 70 +29 +29 душно 1012.7 1006.6
08 13.06 ЮВ 2 20 км н/о +23.0 +17.0 69 +28 +28 душно 1013.0 1006.9
09 13.06 ЮВ 2 20 км н/о +22.5 +17.0 71 +27 +27 душно 1013.8 1007.6
10 13.06 ЮВ 1 20 км н/о +21.2 +17.2 78 +25 +25 комфорт 1014.1 1007.9
11 13.06 ЮВ 2 20 км н/о +21.3 +17.3 78 +25 +25 комфорт 1014.2 1008.0
12 13.06 В 2 20 км н/о +21.3 +17.3 78 +25 +25 комфорт 1014.5 1008.3 +25.2
13 13.06 В 2 20 км н/о +20.9 +17.1 79 +26 +26 душно 1014.8 1008.6
14 13.06 СВ 2 20 км н/о +19.9 +16.9 83 +23 +23 комфорт 1014.6 1008.4
15 13.06 СВ 2 20 км н/о +19.8 +16.8 83 +23 +23 комфорт 1014.2 1008.0
16 13.06 СВ 2 20 км н/о +19.8 +16.8 83 +23 +23 комфорт 1014.3 1008.1
17 13.06 С 3 20 км н/о +19.9 +16.7 82 +23 +23 комфорт 1014.1 1007.9
18 13.06 С 3 20 км н/о +20.0 +16.7 81 +23 +23 комфорт 1013.7 1007.5
19 13.06 СВ 3 20 км н/о +20.1 +16.2 78 +23 +23 комфорт 1013.8 1007.6
20 13.06 СВ 2 20 км н/о +20.4 +17.2 82 +24 +24 комфорт 1014.1 1007.9
21 13.06 В 3 20 км н/о +21.2 +17.2 78 +25 +25 комфорт 1014.0 1007.8
22 13.06 СВ 5 20 км н/о +22.0 +17.8 77 +27 +27 душно 1014.0 1007.8
23 13.06 В 7 20 км н/о +22.6 +17.7 74 +28 +28 душно 1014.0 1007.8
00 14.06 В 8 20 км н/о +22.0 +18.2 79 +27 +27 душно 1013.8 1007.6 +19.4
01 14.06 В 7 20 км н/о +22.3 +18.1 77 +27 +27 душно 1013.9 1007.7
02 14.06 В 3 20 км н/о +22.8 +18.1 75 +28 +28 душно 1013.8 1007.7
03 14.06 В 5 20 км н/о +22.8 +18.1 75 +28 +28 душно 1013.1 1007.0
04 14.06 В 6 20 км н/о +22.6 +17.7 74 +28 +28 душно 1012.9 1006.8
05 14.06 В 5 20 км н/о +22.9 +17.8 73 +28 +28 душно 1012.8 1006.7
06 14.06 В 4 20 км н/о +22.1 +16.8 72 +26 +26 душно 1012.8 1006.6
07 14.06 В 4 20 км н/о +21.9 +17.5 76 +26 +26 душно 1012.3 1006.1
08 14.06 В 4 20 км н/о +21.9 +17.3 75 +26 +26 душно 1012.1 1005.9
09 14.06 В 4 20 км н/о +21.8 +17.2 75 +26 +26 душно 1011.8 1005.6
10 14.06 В 4 20 км слаб. дождь н/о +21.6 +17.2 76 +26 +26 душно 1012.1 1005.9
11 14.06 В 8 20 км слаб. дождь н/о +21.1 +17.5 80 +25 +25 комфорт 1011.9 1005.7
12 14.06 В 8 11 км слаб. дождь н/о +20.6 +17.8 84 +24 +24 комфорт 1011.5 1005.3 +23.9 0.0
13 14.06 В 6 7000 м слаб. дождь н/о +19.9 +18.9 94 +23 +23 комфорт 1010.6 1004.4
14 14.06 В 8 12 км слаб. дождь н/о +20.2 +18.9 92 +23 +23 комфорт 1009.5 1003.3
15 14.06 В 11 9000 м слаб. дождь н/о +20.1 +18.6 91 +23 +23 комфорт 1007.7 1001.5
16 14.06 В 12 5000 м слаб. дождь н/о +19.8 +19.0 95 +22 +22 комфорт 1007.1 1000.9
17 14.06 В 6 3000 м дождь н/о +19.6 +19.1 97 +22 +22 комфорт 1006.2 1000.0
18 14.06 В 11 5000 м слаб. дождь н/о +17.9 +16.8 93 +17 +17 1005.1 998.9 16
19 14.06 В 18 6000 м слаб. дождь н/о +18.7 +17.4 92 +18 +18 1002.9 996.7
20 14.06 В 11 11 км слаб. дождь н/о +18.3 +17.0 92 +18 +18 1003.1 996.9
21 14.06 В 11 4600 м дождь н/о +17.6 +16.8 95 +16 +16 1003.2 997.0
22 14.06 СВ 11 4600 м слаб. дождь н/о +17.5 +17.0 97 +16 +16 1002.1 995.9
23 14.06 СВ 13 6000 м слаб. дождь н/о +17.2 +16.4 95 +15 +15 1000.0 993.8
00 15.06 В 12 12 км слаб. дождь н/о +18.4 +16.4 88 +18 +18 999.1 992.9 +17.2 27
01 15.06 В 13 20 км в посл. час дождь н/о +19.0 +15.7 81 +19 +19 998.2 992.1
02 15.06 СВ 7 8000 м дождь н/о +18.3 +16.6 90 +18 +18 996.5 990.4
03 15.06 СВ 5 7000 м слаб. дождь н/о +18.3 +16.6 90 +18 +18 995.4 989.3
04 15.06 В 8 3800 м дождь н/о +18.2 +17.2 94 +18 +18 996.3 990.2
05 15.06 СВ 4 14 км слаб. дождь н/о +18.6 +17.5 93 +19 +19 995.7 989.6
06 15.06 В 6 20 км слаб. дождь н/о +19.1 +18.0 93 +20 +20 993.6 987.5 21
07 15.06 В 10 15 км слаб. дождь н/о +19.8 +17.6 87 +22 +22 комфорт 992.9 986.8
08 15.06 В 6 20 км в посл. час дождь н/о +19.8 +17.8 88 +22 +22 комфорт 993.0 986.9
09 15.06 В 8 20 км {дождь} н/о +20.1 +17.3 84 +22 +22 комфорт 993.1 987.0
10 15.06 В 5 16 км слаб. дождь н/о +19.7 +17.8 89 +22 +22 комфорт 993.5 987.4
11 15.06 СВ 6 20 км в посл. час дождь н/о +19.6 +17.7 89 +22 +22 комфорт 993.5 987.4
12 15.06 СВ 4 20 км в посл. час дождь н/о +19.6 +17.9 90 +22 +22 комфорт 993.4 987.3 +20.3 22
13 15.06 В 4 9000 м слаб. дождь н/о +19.1 +18.0 93 +21 +21 комфорт 992.7 986.6
14 15.06 В 5 9000 м слаб. дождь н/о +19.1 +18.9 99 +21 +21 комфорт 991.6 985.5
15 15.06 ЮЗ 9 4000 м слаб. дождь н/о +20.6 +20.4 99 +25 +25 комфорт 990.0 983.9
16 15.06 ЮЗ 11 4200 м в посл. час дождь н/о +21.5 +20.8 96 +27 +27 душно 989.2 983.2
17 15.06 ЮЗ 13 4900 м слаб. дождь н/о +20.8 +20.2 96 +25 +25 комфорт 988.6 982.6
18 15.06 З 10 10 км в посл. час дождь н/о +20.6 +18.6 88 +24 +24 комфорт 989.6 983.5 33
19 15.06 З 13 9000 м дымка н/о +21.0 +18.6 86 +25 +25 комфорт 990.3 984.3
20 15.06 З 11 10 км н/о +20.9 +18.1 84 +24 +24 комфорт 992.0 985.9
21 15.06 З 9 15 км н/о +21.0 +17.4 80 +24 +24 комфорт 992.6 986.5
22 15.06 З 11 20 км н/о +21.4 +17.6 79 +26 +26 душно 993.2 987.1
23 15.06 З 10 17 км н/о +21.7 +17.5 77 +26 +26 душно 993.9 987.8
00 16.06 З 11 20 км н/о +22.1 +17.3 74 +27 +27 душно 994.1 988.1 +18.5 33
01 16.06 З 12 19 км н/о +22.3 +17.2 73 +27 +27 душно 994.3 988.3
02 16.06 З 9 16 км н/о +23.0 +17.5 71 +28 +28 душно 994.6 988.6
03 16.06 З 11 13 км н/о +22.9 +17.8 73 +28 +28 душно 994.9 988.9
04 16.06 З 9 14 км н/о +23.2 +17.4 70 +29 +29 душно 995.4 989.4
05 16.06 ЮЗ 13 14 км н/о +23.6 +17.8 70 +28 +28 душно 995.9 989.9
06 16.06 З 11 12 км н/о +23.3 +17.3 69 +29 +29 душно 996.2 990.2
07 16.06 З 12 13 км н/о +23.2 +16.5 66 +28 +28 душно 996.8 990.8
08 16.06 З 11 13 км н/о +22.6 +16.4 68 +27 +27 душно 997.5 991.4
09 16.06 З 10 13 км н/о +22.2 +16.0 68 +26 +26 душно 998.7 992.6
10 16.06 З 13 14 км н/о +21.5 +16.0 71 +25 +25 комфорт 999.1 993.0
11 16.06 З 11 16 км н/о +21.2 +15.3 69 +24 +24 комфорт 999.5 993.4
12 16.06 З 14 15 км н/о +20.7 +15.7 73 +23 +23 комфорт 1000.2 994.1 +23.7
13 16.06 З 11 17 км н/о +20.3 +14.9 71 +22 +22 комфорт 1000.5 994.4
14 16.06 З 14 20 км н/о +20.0 +13.9 68 +21 +21 комфорт 1001.7 995.6
15 16.06 З 13 20 км н/о +19.8 +14.2 70 +21 +21 комфорт 1002.4 996.3
16 16.06 З 11 20 км н/о +19.4 +14.5 73 +20 +20 1003.0 996.8
17 16.06 З 10 20 км н/о +19.0 +14.3 74 +19 +19 1002.5 996.3
18 16.06 З 9 20 км н/о +18.7 +14.0 74 +19 +19 1003.1 996.9
19 16.06 З 7 20 км н/о +18.6 +13.7 73 +19 +19 1003.9 997.7
20 16.06 З 6 20 км н/о +18.8 +14.1 74 +19 +19 1005.0 998.8
21 16.06 З 4 20 км н/о +19.2 +14.5 74 +21 +21 комфорт 1006.1 999.9
22 16.06 З 2 20 км н/о +20.5 +14.9 70 +24 +24 комфорт 1006.9 1000.7
23 16.06 В 2 17 км н/о +22.2 +15.1 64 +26 +26 душно 1007.5 1001.4

 

Местоположение метеостанции Иродзаки (Япония): широта 34.60 долгота 138.85 высота над уровнем моря 56 м.

В архиве по умолчанию представлена погода в Иродзаки за последнюю неделю. Архивные данные за месяц целиком и за предыдущие месяцы, начиная с января 2011 года, Вы можете получить, выбрав интересующий диапазон дат из раскрывающегося списка и нажав кнопку "Ввод!".


*Определитесь, кто Вы:
робот инопланетянин человек

Внимание! Время в таблицах - всемирное. Для получения местного времени необходимо прибавить поправку, которая равна 9 ч.

Смотрите также архив погоды в соседних городах и на ближайших метеорологических станциях:

Погода на Осиме (Япония) (51 км)
Погода в Аджиро (Япония) (55 км)
Погода в Мисиме (Япония) (58 км)
Погода в Омаэдзаки (Япония) (59 км)
Погода в Сидзуоке (Япония) (59 км)
Погода на Миякедзиме (Япония) (81 км)
Погода на Фудзияме (Япония) (86 км)
Погода на Озере Кавагучи (Япония) (100 км)
Погода в Татеяме (Япония) (101 км)
Погода в Хамамацу (Япония) (105 км)

Пояснения к столбцам:

Ветер - указаны скорость ветра в м/с - средняя за 10 мин, порывы в срок и между сроками (в фигурных скобках) и направление, откуда дует ветер: С - северный, СВ - северо-восточный, В - восточный, ЮВ - юго-восточный, Ю - южный, ЮЗ - юго-западный, З - западный, СЗ - северо-западный.
Видимость - горизонтальная дальность видимости в метрах или километрах. При видимости от 1 до 10 км при отсутствии осадков обычно наблюдается дымка, при ухудшении видимости до 1 км и менее - туман. В сухую погоду видимость может ухудшаться дымом, пылью или мглою.
Явления - указаны атмосферные явления, наблюдавшиеся в срок или в последний час перед сроком; фигурными скобками обозначены явления, наблюдавшиеся между сроками (за 1-3 часа до срока); квадратными скобками обозначены град или гололедные отложения с указанием их диаметра в мм.
Облачность - указаны через наклонную черту общая и нижняя облачность в баллах и высота нижней границы облаков в метрах; квадратными скобками обозначены формы облаков: Ci - перистые, Cs - перисто-слоистые, Cc - перисто-кучевые, Ac - высококучевые, As - высокослоистые, Sc - слоисто-кучевые, Ns - слоисто-дождевые, Cu - кучевые, Cb - кучево-дождевые. Подробнее классификацию облаков см. в Атласе облаков (PDF).
T - Температура воздуха - температура, измеренная на высоте 2 м над землей.
Td - Температура точки росы - температура, при понижении до которой содержащийся в воздухе водяной пар достигнет насыщения.
f - Относительная влажность воздуха - влажноcть воздуха, измеренная на высоте 2 м над землей.
Te - Эффективная температура - температура, которую ощущает одетый по сезону человек в тени. Характеристика душности погоды. При расчете учитывается влияние влажности воздуха и скорости ветра на теплоощущения человека.
Tes - Эффективная температура на солнце - температура, которую ощущает человек, с поправкой на солнечный нагрев. Характеристика знойности погоды. Зависит от высоты солнца над горизонтом, облачности и скорости ветра. Ночью, в пасмурную погоду, а также при ветре 12 м/с и более поправка равна нулю.
P - Атмосферное давление - приведенное к уровню моря атмосферное давление.
Po - Атмосферное давление - измеренное на уровне метеостанции атмосферное давление.
Tmin - Минимальная температура - минимум температуры воздуха на высоте 2 м над землей.
Tmax - Максимальная температура - максимум температуры воздуха на высоте 2 м над землей.
R - Количество осадков - Количество выпавших осадков за период времени, мм. При наведении курсора мыши на число - период времени, за который выпало указанное количество осадков.
R24 - Количество осадков - Количество выпавших осадков за 24 часа, мм.
S - Снежный покров - Высота снежного покрова, см. При наведении курсора мыши на число - состояние снежного покрова и степень покрытия местности в баллах.